Location: Dompnac
(44.5644°N, 4.1026°E)
Time: 10:22:31
(UTC+00:00)

Cosmos 2026 Rocket - Pass Details

Date: 25 January 2021
Orbit: 940 x 1000 km, 82.9° (Epoch: 26 February)

Event Time Altitude Azimuth Distance (km) Brightness Sun altitude
Rises 17:59:24 0° 174° (S) 3,605 7.1 -13.6°
Reaches altitude 10° 18:01:54 10° 171° (S) 2,671 6.3 -14.1°
Maximum altitude 18:07:53 60° 93° (E) 1,096 4.0 -15.1°
Drops below altitude 10° 18:14:00 10° 15° (NNE) 2,728 6.1 -16.2°
Sets 18:16:33 0° 12° (NNE) 3,689 6.8 -16.6°
